Dewpoint
22 20 19 20 21 19 20 20 22 23 23 24 23 22 22 23 26 25 26 26 27 28
22 22 21 22 22 21 22 22 22 24 23 23 22 22 23 25 25 27 26 27 27 28
22 21 21 22 22 22 23 23 23 23 22 22 21 23 25 25 25 24 28 28 29 28
22 21 21 21 21 21 22 22 21 20 20 19 22 24 24 24 23 24 28 29 28 26
21 20 19 18 18 19 19 19 18 18 20 21 21 22 23 23 23 24 27 25 26 26
19 17 16 15 16 16 17 17 18 19 20 20 20 20 21 21 25 24 23 26 25 24
16 14 12 13 14 15 16 15 16 17 18 19 19 19 21 22 24 23 23 25 28 25
11 9 12 13 13 14 15 15 14 15 15 17 17 19 20 23 23 22 24 23 23 25
8 8 11 11 11 13 14 13 13 14 13 14 14 21 20 23 22 23 22 22 25 25
8 8 10 9 10 12 13 13 13 13 12 12 13 21 20 22 22 22 25 25 26 25
10 9 11 12 11 11 11 13 13 11 11 11 12 18 18 21 21 23 24 24 25 27
12 11 13 15 14 12 11 13 12 11 11 11 12 18 18 19 20 21 21 23 25 29
15 14 14 15 12 11 12 13 12 11 12 12 12 16 17 18 19 21 22 23 23 25
17 15 13 14 11 10 11 11 11 10 12 12 12 12 16 17 19 24 23 23 24 26
Wind_Speed
10 11 10 12 12 12 13 14 15 16 16 16 16 16 17 16 12 11 13 15 14 15
10 11 12 12 13 13 14 15 16 16 17 17 17 17 18 13 13 13 14 15 15 14
11 11 12 12 13 14 15 16 16 17 17 18 18 18 16 14 14 17 16 13 15 15
11 12 12 13 14 15 16 16 17 17 17 17 17 16 16 15 18 20 20 16 17 18
11 12 13 13 14 15 16 16 17 17 17 17 17 17 15 18 20 23 22 20 17 18
12 12 13 14 14 15 16 16 17 17 17 18 18 18 17 20 21 22 22 20 19 18
12 12 13 13 14 15 16 16 17 17 17 18 18 15 22 22 23 23 21 19 17 17
11 11 13 14 14 15 15 16 16 17 17 18 18 14 23 24 24 24 21 19 18 15
11 12 13 14 15 16 16 17 17 17 18 19 16 18 25 26 24 22 20 20 18 16
12 13 14 15 16 17 17 18 18 18 19 19 18 18 26 30 24 21 21 20 18 17
13 14 15 16 17 17 18 18 18 19 19 19 17 21 28 31 24 21 22 20 18 17
13 14 16 17 17 17 18 18 18 19 19 20 22 23 29 29 23 23 24 20 18 16
13 14 15 17 17 17 18 18 18 19 19 19 23 24 31 30 21 24 22 21 21 20
13 14 14 16 17 17 19 18 19 20 19 21 23 25 31 32 23 23 21 18 19 19
Wind_Direction
5 359 352 352 345 338 337 333 332 333 323 321 324 325 323 324 330 324 304 299 296 286
7 1 354 345 343 342 335 332 340 324 326 327 325 326 327 328 328 315 301 295 293 288
0 358 351 344 346 341 338 335 331 333 331 328 331 330 335 331 322 307 304 294 294 288
359 352 351 351 348 346 338 340 338 336 333 331 330 338 334 330 320 315 313 310 304 295
357 355 354 353 349 347 345 342 338 338 336 336 337 334 336 337 320 317 315 312 307 306
2 357 355 351 349 350 347 344 343 343 340 339 334 333 352 331 321 318 314 309 308 308
2 356 356 352 351 350 345 345 345 345 343 340 334 357 345 334 325 320 312 307 307 307
2 358 357 353 350 348 343 344 342 345 346 345 338 9 349 334 327 318 315 316 313 311
2 359 358 350 348 347 344 346 347 348 348 348 349 9 350 341 327 319 319 320 321 322
2 358 355 351 352 350 346 347 348 349 351 352 354 6 354 345 328 329 334 331 331 329
0 356 354 352 353 350 347 348 348 349 350 355 360 16 1 347 338 340 341 336 335 333
357 352 352 352 351 349 347 347 350 349 352 357 352 21 7 352 346 342 341 336 337 340
355 354 349 349 353 349 351 348 352 351 355 358 357 15 5 357 349 343 340 337 340 343
355 348 351 350 356 354 355 353 355 355 357 1 1 4 2 357 354 349 338 339 340 340